This is the latest recevied weather packets stored in our database for station/object KF6GPE. If no packets are shown the sender has not sent any weather packets the latest 10 day(s).
| Time | Temp. | Humidity | Pressure | Rain* | Wind** | Luminosity | Snow |
|---|---|---|---|---|---|---|---|
| 1778184004 | 24.44° C | 58% | 990.4 hPa | 0 mm | - | 1096 W/m² | - |
| 1778183404 | 23.89° C | 60% | 990.5 hPa | 0 mm | - | 1096 W/m² | - |
| 1778182803 | 23.33° C | 59% | 990.5 hPa | 0 mm | - | 1096 W/m² | - |
| 1778182203 | 23.33° C | 61% | 990.7 hPa | 0 mm | - | 1095 W/m² | - |
| 1778181603 | 22.78° C | 62% | 990.8 hPa | 0 mm | - | 1094 W/m² | - |
| 1778181002 | 22.78° C | 61% | 991 hPa | 0 mm | - | 1093 W/m² | - |
| 1778180404 | 21.67° C | 65% | 991 hPa | 0 mm | - | 1092 W/m² | - |
| 1778179804 | 21.67° C | 66% | 991.1 hPa | 0 mm | - | 1091 W/m² | - |
| 1778179204 | 21.67° C | 66% | 991.1 hPa | 0 mm | - | 1089 W/m² | - |
| 1778178603 | 21.11° C | 68% | 991.3 hPa | 0 mm | - | 1087 W/m² | - |
| 1778178004 | 20.56° C | 69% | 991.3 hPa | 0 mm | - | 1085 W/m² | - |
| 1778177404 | 20° C | 68% | 991.3 hPa | 0 mm | - | 1083 W/m² | - |
| 1778176805 | 19.44° C | 71% | 991.4 hPa | 0 mm | - | 1081 W/m² | - |
| 1778176204 | 19.44° C | 72% | 991.4 hPa | 0 mm | - | 1078 W/m² | - |
| 1778175606 | 18.89° C | 74% | 991.4 hPa | 0 mm | - | 1076 W/m² | - |
| 1778175004 | 17.78° C | 76% | 991.4 hPa | 0 mm | - | 1073 W/m² | - |
| 1778174403 | 16.67° C | 77% | 991.4 hPa | 0 mm | - | 1070 W/m² | - |
| 1778173803 | 16.67° C | 80% | 991.4 hPa | 0 mm | - | 1004 W/m² | - |
| 1778173203 | 15.56° C | 81% | 991.4 hPa | 0 mm | - | 1003 W/m² | - |
| 1778172603 | 15° C | 83% | 991.4 hPa | 0 mm | - | 1002 W/m² | - |
| 1778172004 | 15° C | 83% | 991.5 hPa | 0 mm | - | 1002 W/m² | - |
| 1778171404 | 15° C | 84% | 991.6 hPa | 0 mm | - | 1003 W/m² | - |
| 1778170804 | 14.44° C | 85% | 991.6 hPa | 0 mm | - | 1002 W/m² | - |
| 1778170204 | 13.89° C | 86% | 991.6 hPa | 0 mm | - | 1002 W/m² | - |
| 1778169604 | 13.33° C | 89% | 991.6 hPa | 0 mm | - | 1002 W/m² | - |
* Rain latest hour (hover to see other rain measurements)
** Current wind speed in m/s (hover to see current wind gust speed)